Regional Weather Roundup
Issued by NWS Green Bay, WI

Home | Current Version | Previous Version | Graphics & Text | Print | Product List | Glossary Off
Versions: 1 2 3 4 5 6 7 8 9 10 11 12 13 14 15 16 17 18 19 20 21 22 23 24 25 26 27 28 29 30 31 32 33 34 35 36 37 38 39 40 41 42 43 44 45 46 47 48 49 50

000
ASUS43 KGRB 181000
RWRGRB

NORTH-CENTRAL AND NORTHEAST WISCONSIN REGIONAL WEATHER ROUNDUP
NATIONAL WEATHER SERVICE GREEN BAY WI
400 AM CST MON DEC 18 2017

WIZ005-009-010>012-018-019-181100-
NORTH CENTRAL WISCONSIN

CITY           SKY/WX    TMP DP  RH WIND       PRES   REMARKS
IRONWOOD       CLOUDY    25  24  96 S5        29.81F
MANITOWISH WTR NOT AVBL
ARBOR VITAE    NOT AVBL
EAGLE RIVER    NOT AVBL
LAND O LAKES   NOT AVBL
RHINELANDER    CLOUDY    25  25 100 SW7       29.82F FOG
PHILLIPS       CLOUDY    25  25 100 SW6       29.82F FOG
ANTIGO         NOT AVBL
TOMAHAWK       NOT AVBL
MERRILL        CLOUDY    26  26 100 W3        29.86S FOG
$$

WIZ013-073-181100-
NORTHEAST WISCONSIN

CITY           SKY/WX    TMP DP  RH WIND       PRES   REMARKS
IRON MOUNTAIN  CLOUDY    26  24  92 W3        29.82F
MARINETTE      CLOUDY    28  26  92 W3        29.88F FOG
$$

WIZ017-030-035>037-045-181100-
CENTRAL WISCONSIN

CITY           SKY/WX    TMP DP  RH WIND       PRES   REMARKS
MEDFORD        NOT AVBL
WAUSAU         CLOUDY    26  26 100 W6        29.85S FOG
MOSINEE        NOT AVBL
MARSHFIELD     FOG       27  27 100 W5        29.85F VSB 3/4
WISC RAPIDS    CLOUDY    28  27  96 W3        29.89F FOG
STEVENS POINT  NOT AVBL
WAUPACA        NOT AVBL
SHAWANO        CLOUDY    30  28  94 W6        29.87F FOG
CLINTONVILLE   NOT AVBL
WAUTOMA        CLOUDY    29  28  96 SW3       29.89F FOG
$$

WIZ038-039-048-051-181100-
FOX VALLEY

CITY           SKY/WX    TMP DP  RH WIND       PRES   REMARKS
NWS GREEN BAY  CLOUDY    30  26  85 W9        29.89S FOG
APPLETON       NOT AVBL
OSHKOSH        CLOUDY    30  29  96 S3        29.89S FOG
FOND DU LAC    FOG       31  28  89 S3        29.89F VSB 1/4
$$

WIZ022-050-052-181100-
EAST CENTRAL WISCONSIN

CITY           SKY/WX    TMP DP  RH WIND       PRES   REMARKS
EPHRAIM        NOT AVBL
WASHINGTON ISL NOT AVBL
STURGEON BAY   CLOUDY    28  27  96 W5        29.88F FOG
MANITOWOC      CLOUDY    30  28  92 W5        29.90F FOG
SHEBOYGAN      CLOUDY    30  30 100 CALM      29.89F FOG
$$

LMZ563-521-522-541>543-181100-
LAKESHORE

STATION/POSITION TIME  TEMP    WIND        PRES    VSBY  WAVE
                       AIR SEA DIR/SP/G                  HT/PER
                 (UTC) (F)     (DEG/KT/KT) (MB)    (MI)  (FT/S)
SHEBOYGAN LKSHOR 0900   31     280/  2/  3 1013.5F
KEWAUNEE LKSHORE 0930   30     260/  5/  7 1011.6S
NORTHPORT PIER   0940   30        CALM     1011.5F
SISTER BAY LKSHO 0920   31     270/  9/ 10   N/A
MENOMINEE LKSHOR 0930   28     220/  5/  8 1011.7F
$$




USA.gov is the U.S. government's official web portal to all federal, state and local government web resources and services.